カタログに戻る

COSMOS 1285 DEB

LostHEO
NORAD 25841·DEBRIS·🇷🇺 Russia

打ち上げ Aug 4, 1981 から Plesetsk Cosmodrome

Loading…

次のパス (今後24時間)

TLE

古いSource: Space-Track

元期: Aug 21, 2011, 17:47 UTC

1 25841U 81071K   11233.74123447 -.00000670 +00000-0 +10000-3 0  9997
2 25841 067.1462 049.8124 6054066 138.5354 287.4894 01.98069629102894

AllMySatでCOSMOS 1285 DEBをリアルタイム追跡

Download on the App Store